Tracking 27422 objects as of 30-May-2023
HD Live streaming from Space Station
objects crossing your sky now

FLOCK 4P 6

Track FLOCK 4P 6 now!
10-day predictions
FLOCK 4P 6 is classified as:


NORAD ID: 44817
Int'l Code: 2019-081P
Perigee: 368.1 km
Apogee: 371.8 km
Inclination: 97.3 °
Period: 91.8 minutes
Semi major axis: 6740 km
RCS: Unknown
Launch date: November 27, 2019
Source: United States (US)
Launch site: SRIHARIKOTA (SRI)
Your satellite tracking list
Your tracking list is empty




NASA's NSSDC Master Catalog

Two Line Element Set (TLE):
1 44817U 19081P   23150.19150247  .00204865  00000-0  17659-2 0  9998
2 44817  97.3489 223.3482 0002753 212.2272 147.8822 15.68633976195286
Source of the keplerian elements: AFSPC